Jack Guidry — WDF2422 — position and weather

sailwx.info

Track history (hours):
 
Tides and Currents Weather Stations Pressure Air Temp Water Temp Dewpoint Dewpoint Depression Visibility Wind Speed Wind Dir Waves Ship Positions

Jack Guidry

Owner: Enterprise Marine Services, LLC, San Antonio, TX. More information available from US FCC via Universal Licensing System and Coast Guard Vessel Documentation Center.

Last reported at 2014-Oct-24 11:34 UTC. Time now 2014-Oct-24 12:08 UTC.
Position N 29°37' W 095°01'.

Length 22 m; draft 2.5 m.

Type: Other ship. MMSI: 367003430.

Date/timePositionNaut miles runAvg speedWind from/ knotsBaromVisibWave heightAir tempDewpointWater temp
2014-Oct-24 11:34N 29°37' W 095°01'0 0.0
2014-Oct-24 10:33N 29°37' W 095°01'0 0.0
2014-Oct-24 09:34N 29°37' W 095°01'0 0.0
2014-Oct-24 08:33N 29°37' W 095°01'0 0.0
2014-Oct-24 07:33N 29°37' W 095°01'0 0.0
2014-Oct-24 06:34N 29°37' W 095°01'0 0.0
2014-Oct-24 05:33N 29°37' W 095°01'0 0.0
2014-Oct-24 04:33N 29°37' W 095°01'0 0.0
2014-Oct-24 03:33N 29°37' W 095°01'0 0.0
2014-Oct-24 02:34N 29°37' W 095°01'0 0.1
2014-Oct-24 01:33N 29°37' W 095°01'3 3.4
2014-Oct-24 00:34N 29°37' W 094°58'5 4.6
2014-Oct-23 23:34N 29°42' W 094°60'5 4.5
2014-Oct-23 22:31N 29°45' W 095°04'3 2.2
2014-Oct-23 21:17N 29°47' W 095°05'0 0.0
2014-Oct-23 16:28N 29°47' W 095°05'0 0.0
2014-Oct-23 15:26N 29°47' W 095°05'0 0.0
2014-Oct-23 14:31N 29°47' W 095°05'0 0.0
2014-Oct-23 13:29N 29°47' W 095°05'0 0.0
2014-Oct-23 12:29N 29°47' W 095°05'0 0.0
2014-Oct-23 11:32N 29°47' W 095°05'0 0.0
2014-Oct-23 10:28N 29°47' W 095°05'0 0.0
2014-Oct-23 09:31N 29°47' W 095°05'0 0.0
2014-Oct-23 08:08N 29°47' W 095°05'0 0.0
2014-Oct-22 23:32N 29°47' W 095°05'0 0.0
2014-Oct-22 22:33N 29°47' W 095°05'0 0.0
2014-Oct-22 21:30N 29°47' W 095°05'1 0.6
2014-Oct-22 20:32N 29°47' W 095°04'0 0.4
2014-Oct-22 19:23N 29°47' W 095°05'3 4.1
2014-Oct-22 18:33N 29°44' W 095°02'4 4.2
2014-Oct-22 17:34N 29°41' W 094°59'5 4.7
2014-Oct-22 16:33N 29°36' W 094°57'5 5.2
2014-Oct-22 15:34N 29°32' W 094°54'5 5.0
2014-Oct-22 14:28N 29°27' W 094°51'  
2014-Oct-18 22:33N 29°30' W 094°52'6 6.0
2014-Oct-18 21:33N 29°35' W 094°56'6 6.1
2014-Oct-18 20:33N 29°41' W 094°59'5 5.3
2014-Oct-18 19:33N 29°44' W 095°04'3 1.6
2014-Oct-18 17:32N 29°47' W 095°05'0 0.0
2014-Oct-18 16:33N 29°47' W 095°05'0 0.2
2014-Oct-18 15:04N 29°47' W 095°05'0 0.4
2014-Oct-18 14:33N 29°47' W 095°05'4 3.7
2014-Oct-18 13:33N 29°44' W 095°03'5 4.8
2014-Oct-18 12:33N 29°41' W 094°59'4 3.9
2014-Oct-18 11:33N 29°37' W 094°60'2 1.6
2014-Oct-18 10:33N 29°37' W 095°02'0 0.0
2014-Oct-18 09:33N 29°37' W 095°02'0 0.0
2014-Oct-18 08:33N 29°37' W 095°02'0 0.0
2014-Oct-18 07:34N 29°37' W 095°02'0 0.0
2014-Oct-18 06:33N 29°37' W 095°02'0 0.0
2014-Oct-18 05:34N 29°37' W 095°02'0 0.0
2014-Oct-18 04:34N 29°37' W 095°02'0 0.0
2014-Oct-18 03:34N 29°37' W 095°02'0 0.0
2014-Oct-18 02:33N 29°37' W 095°02'0 0.0
2014-Oct-18 01:33N 29°37' W 095°02'0 0.0
2014-Oct-18 00:33N 29°37' W 095°02'0 0.0
2014-Oct-17 23:33N 29°37' W 095°02'0 0.0
2014-Oct-17 22:33N 29°37' W 095°02'0 0.0
2014-Oct-17 21:33N 29°37' W 095°02'0 0.0
2014-Oct-17 20:34N 29°37' W 095°02'0 0.0
2014-Oct-17 19:33N 29°37' W 095°02'0 0.0
2014-Oct-17 18:33N 29°37' W 095°02'0 0.0
2014-Oct-17 17:34N 29°37' W 095°02'0 0.0
2014-Oct-17 16:33N 29°37' W 095°02'0 0.1
2014-Oct-17 15:33N 29°37' W 095°01'0 0.0
2014-Oct-17 14:33N 29°37' W 095°01'0 0.0
2014-Oct-17 13:33N 29°37' W 095°01'1 0.5
2014-Oct-17 12:33N 29°37' W 095°01'3 3.5
2014-Oct-17 11:34N 29°36' W 094°57'6 5.5
2014-Oct-17 10:33N 29°32' W 094°53'  
Track history (hours):
 
Tides and Currents Weather Stations Pressure Air Temp Water Temp Dewpoint Dewpoint Depression Visibility Wind Speed Wind Dir Waves Ship Positions

Jack Guidry

Owner: Enterprise Marine Services, LLC, San Antonio, TX. More information available from US FCC via Universal Licensing System and Coast Guard Vessel Documentation Center.

Last reported at 2014-Oct-24 11:34 UTC. Time now 2014-Oct-24 12:08 UTC.
Position N 29°37' W 095°01'.

Length 22 m; draft 2.5 m.

Type: Other ship. MMSI: 367003430.

Date/timePositionNaut miles runAvg speedWind from/ knotsBaromVisibWave heightAir tempDewpointWater temp
2014-Oct-24 11:34N 29°37' W 095°01'0 0.0
2014-Oct-24 10:33N 29°37' W 095°01'0 0.0
2014-Oct-24 09:34N 29°37' W 095°01'0 0.0
2014-Oct-24 08:33N 29°37' W 095°01'0 0.0
2014-Oct-24 07:33N 29°37' W 095°01'0 0.0
2014-Oct-24 06:34N 29°37' W 095°01'0 0.0
2014-Oct-24 05:33N 29°37' W 095°01'0 0.0
2014-Oct-24 04:33N 29°37' W 095°01'0 0.0
2014-Oct-24 03:33N 29°37' W 095°01'0 0.0
2014-Oct-24 02:34N 29°37' W 095°01'0 0.1
2014-Oct-24 01:33N 29°37' W 095°01'3 3.4
2014-Oct-24 00:34N 29°37' W 094°58'5 4.6
2014-Oct-23 23:34N 29°42' W 094°60'5 4.5
2014-Oct-23 22:31N 29°45' W 095°04'3 2.2
2014-Oct-23 21:17N 29°47' W 095°05'0 0.0
2014-Oct-23 16:28N 29°47' W 095°05'0 0.0
2014-Oct-23 15:26N 29°47' W 095°05'0 0.0
2014-Oct-23 14:31N 29°47' W 095°05'0 0.0
2014-Oct-23 13:29N 29°47' W 095°05'0 0.0
2014-Oct-23 12:29N 29°47' W 095°05'0 0.0
2014-Oct-23 11:32N 29°47' W 095°05'0 0.0
2014-Oct-23 10:28N 29°47' W 095°05'0 0.0
2014-Oct-23 09:31N 29°47' W 095°05'0 0.0
2014-Oct-23 08:08N 29°47' W 095°05'0 0.0
2014-Oct-22 23:32N 29°47' W 095°05'0 0.0
2014-Oct-22 22:33N 29°47' W 095°05'0 0.0
2014-Oct-22 21:30N 29°47' W 095°05'1 0.6
2014-Oct-22 20:32N 29°47' W 095°04'0 0.4
2014-Oct-22 19:23N 29°47' W 095°05'3 4.1
2014-Oct-22 18:33N 29°44' W 095°02'4 4.2
2014-Oct-22 17:34N 29°41' W 094°59'5 4.7
2014-Oct-22 16:33N 29°36' W 094°57'5 5.2
2014-Oct-22 15:34N 29°32' W 094°54'5 5.0
2014-Oct-22 14:28N 29°27' W 094°51'  
2014-Oct-18 22:33N 29°30' W 094°52'6 6.0
2014-Oct-18 21:33N 29°35' W 094°56'6 6.1
2014-Oct-18 20:33N 29°41' W 094°59'5 5.3
2014-Oct-18 19:33N 29°44' W 095°04'3 1.6
2014-Oct-18 17:32N 29°47' W 095°05'0 0.0
2014-Oct-18 16:33N 29°47' W 095°05'0 0.2
2014-Oct-18 15:04N 29°47' W 095°05'0 0.4
2014-Oct-18 14:33N 29°47' W 095°05'4 3.7
2014-Oct-18 13:33N 29°44' W 095°03'5 4.8
2014-Oct-18 12:33N 29°41' W 094°59'4 3.9
2014-Oct-18 11:33N 29°37' W 094°60'2 1.6
2014-Oct-18 10:33N 29°37' W 095°02'0 0.0
2014-Oct-18 09:33N 29°37' W 095°02'0 0.0
2014-Oct-18 08:33N 29°37' W 095°02'0 0.0
2014-Oct-18 07:34N 29°37' W 095°02'0 0.0
2014-Oct-18 06:33N 29°37' W 095°02'0 0.0
2014-Oct-18 05:34N 29°37' W 095°02'0 0.0
2014-Oct-18 04:34N 29°37' W 095°02'0 0.0
2014-Oct-18 03:34N 29°37' W 095°02'0 0.0
2014-Oct-18 02:33N 29°37' W 095°02'0 0.0
2014-Oct-18 01:33N 29°37' W 095°02'0 0.0
2014-Oct-18 00:33N 29°37' W 095°02'0 0.0
2014-Oct-17 23:33N 29°37' W 095°02'0 0.0
2014-Oct-17 22:33N 29°37' W 095°02'0 0.0
2014-Oct-17 21:33N 29°37' W 095°02'0 0.0
2014-Oct-17 20:34N 29°37' W 095°02'0 0.0
2014-Oct-17 19:33N 29°37' W 095°02'0 0.0
2014-Oct-17 18:33N 29°37' W 095°02'0 0.0
2014-Oct-17 17:34N 29°37' W 095°02'0 0.0
2014-Oct-17 16:33N 29°37' W 095°02'0 0.1
2014-Oct-17 15:33N 29°37' W 095°01'0 0.0
2014-Oct-17 14:33N 29°37' W 095°01'0 0.0
2014-Oct-17 13:33N 29°37' W 095°01'1 0.5
2014-Oct-17 12:33N 29°37' W 095°01'3 3.5
2014-Oct-17 11:34N 29°36' W 094°57'6 5.5
2014-Oct-17 10:33N 29°32' W 094°53'  

Dump ship's entire track history